Probability
0 0 0 0 3 3 3 0 0 3 6 3 3 3 3 0 0 6 10 19 61 68 52 55 45 42 48 42 39 35 29 26 26 29 26 19 16 16 16 16 19 19 13
0 0 0 0 3 3 3 0 0 3 0 6 10 10 3 0 6 3 6 19 48 61 55 52 45 48 42 45 39 42 29 26 26 35 29 29 19 19 16 13 16 23 23
0 0 0 0 0 0 0 0 0 3 6 6 10 10 10 10 6 3 6 13 23 39 55 42 48 45 48 35 42 45 39 39 39 42 39 42 35 35 29 23 23 19 26
0 0 3 0 0 0 6 6 6 6 6 10 6 6 10 6 3 0 3 6 13 19 35 45 55 55 45 39 39 42 39 39 39 29 32 26 29 35 32 26 23 19 19
10 3 3 0 3 3 6 6 6 6 6 10 10 10 6 0 3 0 0 0 0 3 16 26 42 42 39 42 42 42 42 42 35 29 26 19 19 26 26 19 16 13 10
19 10 3 3 3 6 6 6 6 6 10 6 6 6 6 3 3 3 0 0 0 0 0 0 19 39 45 45 52 48 52 42 42 32 19 23 23 23 29 19 16 13 6
23 13 13 6 3 6 6 10 6 6 6 3 6 3 0 0 3 3 3 6 6 3 0 0 3 3 29 35 45 48 48 52 45 39 39 32 19 19 23 19 16 13 6
26 23 13 10 10 6 6 13 6 6 10 16 10 3 0 0 0 0 3 6 6 6 6 3 6 3 0 10 13 23 42 45 42 39 48 45 32 29 26 29 19 13 3
29 29 19 19 16 16 19 16 16 13 16 13 13 6 0 0 0 0 0 3 3 3 3 3 3 3 3 3 3 3 23 29 42 39 35 32 29 29 23 13 19 16 10
29 26 23 19 19 16 16 19 29 19 13 19 19 13 3 3 3 3 0 0 0 3 3 0 3 3 3 6 6 3 6 6 16 29 35 29 29 29 19 16 16 13 6
26 32 32 23 19 16 19 16 26 23 16 19 23 19 6 3 0 3 3 3 3 6 0 0 0 3 6 3 6 6 3 3 3 6 23 32 26 23 26 23 13 13 10
19 26 42 23 23 23 29 29 26 23 23 19 23 16 16 13 13 0 3 3 3 3 3 3 6 6 6 10 0 0 3 3 0 0 0 10 16 16 16 19 16 13 13
19 26 29 26 19 23 26 26 26 23 23 19 19 19 13 10 10 6 3 3 3 3 3 6 6 10 6 3 3 0 0 0 0 0 0 0 0 6 13 13 13 16 10
26 26 29 26 26 19 23 23 23 23 19 23 19 19 16 13 10 10 6 6 6 3 3 3 3 3 3 3 3 0 3 0 0 0 0 0 0 0 0 0 3 3 10
26 19 23 26 23 19 16 16 19 19 23 19 19 19 19 16 13 10 6 6 10 10 10 3 3 6 3 3 3 6 6 0 0 0 0 0 0 0 0 0 0 0 0
23 26 23 23 19 23 23 16 19 19 19 19 19 19 19 16 13 13 10 3 3 6 10 10 6 0 3 3 3 3 3 0 0 0 0 0 0 0 0 0 0 0 0
26 26 23 26 26 29 26 16 19 16 16 16 16 16 19 16 16 10 6 6 6 3 10 10 3 0 3 6 6 6 3 3 0 0 0 0 0 0 0 0 0 0 0
32 29 26 26 29 29 29 26 23 16 16 16 13 16 16 16 16 13 6 6 6 6 6 10 6 3 6 6 6 6 3 3 3 0 0 0 0 0 0 0 0 0 0
26 26 23 29 32 29 29 29 23 19 16 16 16 16 19 23 16 16 10 6 6 3 6 6 10 3 3 3 3 0 0 0 0 0 0 0 0 0 0 0 0 0 0
26 26 29 26 29 29 26 26 26 23 23 16 16 16 19 16 13 13 10 10 6 3 6 6 6 3 3 0 0 3 0 0 0 0 0 0 0 0 0 0 0 0 0
32 29 29 32 29 23 23 26 26 26 26 26 16 19 19 13 10 13 13 10 6 3 6 6 6 6 3 0 3 0 0 0 0 0 0 0 0 0 0 0 0 0 0
35 35 35 32 26 29 19 3 6 26 26 19 26 26 23 19 10 6 3 3 0 6 10 6 6 6 3 3 3 0 0 0 0 0 0 0 0 0 0 0 0 0 0
32 32 32 32 29 19 6 6 3 10 26 16 16 19 19 16 10 10 6 3 3 0 0 6 6 6 6 3 3 0 0 0 0 0 0 0 0 0 0 0 0 0 0
29 29 29 26 23 16 6 3 3 3 13 13 16 19 13 19 6 6 6 6 6 3 3 0 3 3 3 3 3 3 3 0 0 0 0 0 0 0 0 0 0 0 0
29 29 23 19 19 16 10 3 3 3 13 13 13 13 13 16 10 0 3 6 6 3 3 0 0 3 0 0 3 3 3 0 0 0 0 0 0 0 0 0 0 0 0
26 19 19 23 19 19 10 3 0 10 13 16 16 13 13 10 6 0 0 3 6 3 3 3 3 0 0 0 0 3 3 3 3 0 0 0 0 0 0 0 0 0 0
Height
5885 5886 5886 5886 5887 5887 5887 5887 5888 5888 5889 5889 5889 5889 5890 5890 5891 5891 5892 5892 5892 5892 5893 5893 5893 5893 5893 5894 5895 5895 5895 5896 5896 5896 5897 5898 5898 5898 5899 5899 5899 5900 5900
5886 5886 5887 5887 5887 5888 5888 5888 5888 5888 5889 5889 5889 5889 5890 5890 5891 5891 5891 5892 5892 5892 5892 5892 5893 5893 5893 5893 5894 5894 5895 5895 5896 5896 5897 5897 5898 5898 5898 5898 5898 5899 5899
5887 5887 5887 5888 5888 5888 5888 5888 5888 5889 5889 5889 5889 5889 5890 5890 5890 5890 5891 5891 5891 5892 5892 5891 5892 5892 5892 5893 5893 5893 5894 5894 5895 5895 5896 5896 5897 5897 5897 5897 5898 5898 5898
5888 5888 5888 5888 5888 5888 5888 5888 5889 5889 5889 5889 5889 5889 5889 5889 5890 5890 5890 5890 5890 5891 5891 5891 5891 5891 5892 5892 5892 5892 5893 5893 5894 5894 5894 5895 5896 5896 5896 5896 5896 5897 5897
5888 5888 5889 5889 5889 5889 5888 5888 5888 5888 5888 5889 5889 5889 5889 5889 5889 5889 5889 5889 5889 5889 5890 5890 5890 5890 5891 5891 5890 5891 5891 5892 5892 5893 5893 5893 5894 5894 5894 5895 5895 5895 5895
5889 5889 5889 5889 5889 5889 5888 5888 5888 5888 5888 5888 5888 5888 5888 5888 5888 5888 5888 5888 5888 5888 5889 5889 5889 5889 5889 5890 5889 5890 5890 5890 5891 5891 5892 5892 5892 5892 5892 5893 5893 5893 5893
5890 5889 5889 5889 5889 5888 5888 5888 5888 5888 5887 5888 5888 5888 5888 5887 5887 5888 5888 5887 5887 5887 5888 5888 5888 5888 5888 5888 5888 5888 5888 5889 5889 5889 5890 5890 5890 5890 5890 5890 5891 5891 5891
5890 5890 5889 5889 5889 5888 5888 5887 5887 5887 5887 5887 5887 5887 5887 5887 5886 5886 5886 5886 5886 5887 5887 5887 5887 5887 5887 5887 5887 5887 5887 5887 5887 5887 5888 5888 5888 5888 5888 5888 5888 5888 5888
5891 5890 5890 5889 5889 5888 5887 5887 5886 5886 5886 5886 5886 5887 5886 5886 5886 5885 5885 5885 5885 5885 5886 5885 5885 5885 5885 5885 5884 5884 5885 5885 5885 5885 5885 5885 5885 5885 5885 5885 5884 5885 5884
5892 5891 5890 5889 5888 5888 5887 5886 5886 5885 5885 5885 5886 5886 5886 5885 5884 5884 5884 5884 5884 5884 5884 5884 5884 5884 5884 5883 5883 5882 5882 5883 5883 5883 5883 5882 5882 5882 5882 5881 5881 5881 5881
5892 5891 5890 5889 5888 5887 5886 5886 5885 5885 5884 5884 5884 5884 5884 5884 5883 5883 5883 5883 5883 5883 5882 5882 5882 5882 5882 5881 5881 5880 5880 5880 5880 5880 5880 5879 5879 5879 5878 5878 5878 5878 5877
5892 5891 5890 5889 5888 5887 5886 5885 5884 5884 5883 5883 5883 5883 5883 5882 5882 5881 5881 5881 5881 5881 5881 5880 5880 5880 5879 5879 5878 5878 5878 5877 5877 5877 5876 5876 5876 5875 5875 5874 5874 5874 5873
5892 5891 5890 5888 5887 5886 5885 5884 5883 5882 5882 5882 5881 5881 5881 5881 5881 5880 5880 5879 5879 5879 5879 5878 5878 5878 5877 5876 5876 5875 5875 5874 5874 5874 5873 5872 5872 5872 5871 5870 5870 5870 5869
5892 5891 5889 5888 5886 5885 5884 5883 5882 5881 5881 5880 5880 5880 5880 5880 5879 5879 5878 5878 5878 5877 5877 5876 5876 5875 5875 5874 5873 5873 5872 5871 5871 5870 5869 5869 5868 5868 5867 5866 5866 5865 5865
5891 5890 5889 5887 5886 5884 5883 5882 5881 5880 5879 5879 5878 5878 5878 5878 5877 5877 5876 5876 5876 5876 5875 5874 5874 5873 5872 5872 5871 5870 5869 5868 5867 5866 5866 5865 5864 5863 5862 5862 5861 5861 5860
5890 5889 5888 5886 5885 5883 5882 5881 5880 5879 5878 5877 5877 5876 5876 5876 5875 5875 5874 5874 5874 5873 5873 5872 5871 5871 5870 5869 5868 5867 5866 5865 5863 5862 5862 5861 5860 5859 5858 5857 5856 5855 5855
5889 5888 5886 5885 5883 5882 5881 5880 5879 5877 5876 5876 5875 5874 5874 5874 5873 5873 5872 5872 5871 5871 5870 5869 5868 5867 5867 5866 5864 5863 5862 5861 5860 5858 5858 5857 5856 5854 5853 5852 5851 5850 5849
5887 5886 5885 5883 5882 5881 5879 5878 5877 5876 5875 5874 5873 5873 5872 5871 5871 5870 5869 5869 5868 5867 5867 5866 5865 5864 5863 5862 5861 5860 5858 5857 5856 5854 5853 5852 5851 5849 5848 5847 5845 5844 5843
5885 5884 5883 5881 5880 5879 5877 5876 5875 5874 5873 5872 5871 5870 5870 5869 5868 5867 5866 5866 5865 5864 5863 5862 5861 5860 5859 5858 5857 5856 5855 5853 5851 5850 5849 5847 5846 5844 5843 5841 5840 5838 5836
5882 5882 5880 5879 5877 5876 5875 5874 5873 5872 5871 5870 5869 5868 5867 5866 5865 5864 5863 5862 5862 5861 5860 5859 5858 5856 5855 5854 5853 5852 5850 5849 5847 5845 5844 5842 5840 5839 5837 5835 5834 5832 5830
5880 5879 5878 5876 5875 5873 5872 5871 5870 5869 5868 5867 5866 5865 5864 5863 5862 5861 5860 5859 5858 5858 5857 5855 5854 5852 5851 5850 5848 5847 5846 5844 5842 5840 5839 5837 5835 5833 5831 5829 5827 5825 5823
5877 5876 5875 5873 5872 5871 5869 5868 5867 5866 5865 5864 5863 5861 5860 5859 5858 5857 5856 5855 5854 5854 5853 5851 5850 5848 5846 5845 5843 5842 5840 5839 5837 5835 5833 5831 5829 5827 5824 5822 5820 5818 5815
5874 5873 5871 5870 5869 5867 5866 5865 5864 5863 5861 5860 5859 5857 5857 5855 5854 5853 5852 5851 5850 5849 5848 5847 5845 5843 5841 5839 5838 5836 5834 5832 5831 5829 5826 5824 5822 5820 5817 5815 5813 5810 5808
5870 5869 5868 5866 5865 5864 5862 5861 5860 5859 5857 5856 5855 5853 5852 5851 5851 5849 5848 5847 5846 5844 5843 5841 5840 5838 5836 5834 5832 5830 5828 5826 5824 5822 5820 5818 5815 5813 5810 5807 5805 5802 5799
5867 5865 5864 5863 5861 5859 5858 5857 5855 5854 5853 5852 5851 5849 5848 5847 5846 5845 5844 5842 5841 5839 5838 5836 5834 5831 5829 5828 5826 5824 5822 5820 5818 5815 5813 5810 5807 5805 5802 5799 5796 5794 5791
5862 5861 5860 5859 5857 5855 5854 5852 5851 5850 5849 5848 5846 5845 5844 5842 5841 5840 5839 5837 5835 5834 5832 5830 5828 5826 5823 5821 5819 5817 5815 5813 5810 5808 5805 5803 5800 5797 5794 5791 5788 5785 5781
Wind_Speed
5 4 4 3 3 3 3 2 2 1 2 2 1 2 2 1 1 1 1 1 1 1 2 3 3 3 3 3 3 4 4 4 4 5 4 4 3 3 4 4 4 4 3
4 4 4 4 3 2 1 1 1 1 1 1 1 1 1 1 2 2 2 2 2 2 3 3 3 3 3 4 4 4 5 4 5 5 5 5 4 4 4 5 5 5 5
4 3 3 2 1 1 1 0 1 1 1 1 0 1 1 2 2 3 3 3 3 3 3 3 4 4 3 4 5 5 6 6 6 6 6 6 6 5 6 6 6 6 7
4 3 2 1 1 1 1 0 1 1 1 1 1 1 2 2 3 3 4 4 4 4 4 4 5 5 5 5 6 6 6 6 6 6 7 7 7 7 7 7 7 7 8
4 2 2 1 0 1 0 0 0 1 1 1 1 2 2 2 2 4 4 5 5 5 5 5 5 5 5 5 6 6 6 7 6 6 7 7 7 8 8 8 8 8 9
4 3 2 1 1 1 1 1 2 1 1 1 1 2 3 3 3 3 4 5 5 5 5 5 5 6 6 6 6 7 8 8 8 8 8 8 8 8 9 9 9 9 9
5 4 3 2 2 2 2 2 1 2 2 2 2 3 4 4 4 4 4 4 5 5 5 5 5 5 6 7 7 8 9 8 8 8 9 9 9 9 10 10 10 10 10
4 4 3 3 3 3 3 2 2 2 2 3 3 3 4 4 5 5 5 5 5 5 5 4 5 6 7 7 8 9 9 8 9 9 10 10 10 10 10 11 12 12 12
6 5 4 4 4 4 3 3 3 3 3 3 4 4 4 5 5 5 5 6 6 6 6 6 6 7 7 9 10 10 10 10 10 10 11 11 12 12 12 13 13 14 14
6 6 5 4 4 4 4 4 4 4 4 5 5 5 5 5 6 6 6 6 7 7 7 7 8 8 8 9 9 9 10 11 12 12 11 12 13 13 14 14 13 14 14
6 6 5 5 4 5 5 5 6 6 5 5 5 5 6 6 6 6 6 7 8 9 8 9 9 9 10 10 10 10 10 11 12 12 12 13 13 14 15 14 14 15 15
6 6 6 6 6 6 6 6 6 6 6 6 6 6 6 6 6 6 7 7 8 8 9 9 9 10 10 11 11 11 11 11 12 13 13 14 15 15 15 15 15 16 16
7 7 8 7 7 7 7 6 6 6 6 6 7 6 6 6 7 7 7 7 7 8 9 9 10 10 10 11 11 11 12 12 13 14 14 15 16 16 16 17 17 17 17
8 8 8 8 8 7 7 7 6 6 6 6 7 7 7 8 7 7 7 7 7 8 9 10 10 11 10 11 11 11 12 13 13 14 15 16 16 17 18 19 18 18 19
8 9 8 8 8 8 8 8 8 7 7 7 7 7 8 8 7 7 8 8 9 10 10 11 10 10 11 11 12 12 13 14 15 15 16 16 17 18 19 19 20 21 21
9 9 9 9 9 9 9 8 8 8 8 7 7 7 8 8 9 9 9 9 10 10 11 12 12 12 12 13 13 14 15 15 15 15 16 17 18 20 20 21 22 23 24
9 9 9 10 10 10 9 9 9 9 9 8 8 9 8 9 10 10 10 11 11 12 12 13 13 13 14 14 15 15 15 15 16 16 17 19 20 21 21 22 22 23 24
10 10 10 10 11 11 11 11 10 10 9 9 9 10 10 11 11 11 11 12 12 13 14 14 14 15 15 16 15 15 16 17 17 18 19 20 21 21 22 22 23 23 24
11 11 11 11 11 12 12 12 11 10 10 10 11 12 12 12 13 13 13 13 13 14 14 14 15 15 16 16 16 17 17 18 18 19 20 20 21 22 22 22 24 24 25
11 12 12 13 12 12 12 12 12 11 12 12 13 13 13 13 14 14 14 14 14 14 15 15 16 17 17 17 18 18 19 19 20 20 21 21 22 22 23 24 25 26 27
12 12 13 13 13 13 13 13 13 12 13 13 13 13 14 14 15 15 15 15 16 16 16 17 18 19 19 19 20 20 21 21 21 22 22 23 23 23 24 25 26 27 27
12 13 13 14 14 14 14 14 13 13 14 14 14 15 16 16 16 16 17 17 17 18 19 19 19 19 20 21 21 22 22 22 22 23 24 24 24 25 26 27 27 28 28
14 14 15 15 15 15 15 15 15 15 15 15 15 16 16 17 17 17 17 17 18 18 19 20 20 20 21 22 22 23 23 23 24 24 24 25 26 26 27 28 28 29 30
15 15 16 16 16 16 16 16 16 16 16 16 17 17 17 18 18 18 18 18 19 19 20 20 21 22 22 23 23 24 25 25 25 25 26 26 27 28 28 29 30 31 32
17 17 17 17 18 17 17 17 16 16 17 17 17 18 18 18 18 18 19 19 19 20 21 22 22 22 23 23 24 25 26 26 26 26 27 28 28 29 30 30 31 33 33
19 18 18 18 19 19 18 18 17 17 18 18 18 18 19 19 19 20 20 21 21 22 22 23 23 23 24 25 25 26 26 27 27 28 28 29 29 30 30 31 33 34 34
Wind_Direction
92 102 104 107 109 102 97 90 97 108 149 149 148 150 167 190 224 234 207 218 239 244 241 231 225 226 234 230 221 225 232 238 232 220 226 219 226 230 242 250 250 247 253
96 99 99 102 98 84 92 122 120 137 156 174 194 222 239 256 252 240 249 250 258 252 244 233 229 226 238 233 229 234 240 244 238 230 234 231 237 242 257 256 260 254 256
85 93 88 85 78 40 34 158 156 169 180 178 236 263 261 272 267 257 253 253 255 258 253 247 239 244 240 237 234 240 246 248 241 237 239 240 247 256 263 260 258 258 259
70 87 90 77 33 358 5 110 144 188 228 244 272 286 290 285 276 263 261 261 258 258 257 253 252 248 249 251 251 250 249 247 249 245 246 247 253 260 264 263 259 262 267
52 64 80 73 26 13 6 163 184 233 254 259 272 287 293 301 289 271 268 264 263 261 260 258 251 246 253 260 261 258 255 248 253 253 251 254 254 260 265 264 262 268 272
36 42 36 24 351 327 297 256 251 255 266 278 286 286 291 294 292 285 277 269 263 257 258 261 255 251 258 264 263 262 258 253 254 254 257 259 261 262 264 264 265 269 271
30 36 36 19 3 343 325 299 291 284 291 297 295 294 290 287 284 285 285 276 267 260 259 262 259 258 267 268 267 263 257 255 256 257 261 264 267 268 267 265 267 269 270
27 22 6 3 1 354 337 318 302 309 308 292 290 296 293 289 282 282 279 274 270 264 265 261 265 266 268 268 269 266 263 264 263 263 265 265 266 271 270 267 267 269 272
21 8 355 349 355 349 333 316 310 300 306 290 281 287 292 293 293 286 273 268 267 269 266 264 267 272 278 278 274 268 272 267 266 271 270 269 269 270 271 269 268 268 270
15 5 2 353 346 345 339 330 317 307 296 285 277 278 288 292 292 287 273 268 267 267 265 269 270 273 281 282 280 278 274 268 271 272 271 272 272 272 273 272 274 274 274
3 2 358 353 339 332 328 325 313 304 296 286 279 278 284 290 288 282 275 273 272 268 266 268 272 276 280 279 284 282 279 274 274 274 272 272 276 276 275 273 274 275 276
353 354 349 349 345 337 326 321 316 305 292 283 284 282 285 288 288 283 280 275 276 271 270 270 273 277 277 280 282 280 279 278 277 275 275 274 276 277 277 277 278 276 276
347 345 341 338 336 333 323 317 314 310 302 291 281 279 282 285 285 285 284 276 276 275 272 273 277 280 285 282 281 281 281 282 282 280 280 279 277 277 277 278 280 276 277
334 336 338 338 336 332 328 325 317 310 304 301 291 279 277 284 284 283 282 279 282 284 280 280 280 285 286 284 284 286 285 284 284 283 282 281 279 280 281 279 279 279 277
328 329 334 334 334 329 325 324 323 312 305 298 292 284 286 285 283 285 285 284 284 284 284 282 281 286 288 288 285 287 285 286 286 284 282 282 282 284 283 279 280 280 280
323 323 328 330 327 324 322 321 324 316 305 296 295 290 289 287 287 290 287 287 287 286 286 285 284 286 287 288 287 286 285 286 287 286 286 284 285 284 284 281 281 281 282
318 315 316 320 321 318 317 313 315 316 306 297 294 296 294 292 290 287 286 287 287 287 287 286 285 286 287 288 288 289 288 288 287 286 287 287 286 287 286 284 284 285 284
313 313 313 315 317 318 315 312 310 314 311 303 300 300 297 295 292 288 286 286 286 286 287 286 284 286 286 287 291 292 292 291 291 289 289 292 289 289 287 286 285 286 287
304 305 309 310 311 313 313 312 305 307 308 303 298 295 295 296 295 292 288 287 286 288 290 289 289 288 286 286 288 290 292 293 291 290 291 293 293 290 289 289 289 289 289
298 300 303 307 308 307 307 309 306 302 301 301 297 295 294 294 294 293 290 288 287 289 291 290 291 290 287 286 289 291 292 292 292 291 292 293 294 294 293 292 291 290 289
295 298 302 306 307 306 305 303 303 302 301 300 297 295 296 295 292 292 292 292 290 290 292 292 293 291 288 286 288 290 292 293 293 292 292 293 294 294 294 293 292 292 291
297 300 301 301 302 304 305 305 305 304 304 302 298 295 295 294 292 293 293 293 293 293 293 293 294 292 290 287 287 289 290 291 292 292 293 294 294 294 294 294 294 294 293
297 300 301 301 300 301 301 301 300 302 302 302 300 297 295 292 290 293 294 295 295 295 295 295 295 294 291 290 289 289 290 291 293 292 293 294 294 294 295 295 295 294 294
295 298 301 301 301 301 299 297 297 299 298 298 298 297 295 293 291 293 296 297 295 295 297 297 296 294 293 291 291 291 292 292 292 293 295 296 295 295 295 295 295 296 296
294 296 299 301 302 302 299 296 296 298 298 297 296 294 293 293 292 292 293 294 294 294 296 296 296 295 295 294 294 294 293 292 292 294 296 297 296 296 296 296 297 298 297
292 294 297 299 300 301 301 301 298 298 297 295 294 293 293 294 291 290 292 293 294 295 296 296 295 295 296 295 295 295 295 294 295 296 297 296 296 297 297 297 298 299 299